Location: Bucharest
(44.4268°N, 26.1025°E)
Time: 02:50:12
(UTC+03:00)

UKube-1 - Visible Passes

Search period start: 28 June 2022 00:00
Search period end: 08 July 2022 00:00
Orbit: 610 x 614 km, 98.4° (Epoch: 27 June)

Date Brightness Start Highest point End Pass type
(mag) Time Alt. Az. Time Alt. Az. Time Alt. Az.
28 Jun ? 00:10:15 10° N 00:13:56 28° WNW 00:16:59 13° WSW visible
28 Jun ? 22:48:56 10° NNE 22:53:00 40° E 22:54:57 25° SSE visible
29 Jun ? 00:25:25 10° NNW 00:28:38 21° WNW 00:31:50 10° WSW visible
29 Jun ? 23:03:37 10° NNE 23:07:52 58° ESE 23:09:56 28° S visible
30 Jun ? 00:40:46 10° NNW 00:43:18 15° WNW 00:45:49 10° W visible
30 Jun ? 23:18:23 10° NNE 23:22:43 84° ESE 23:24:53 29° S visible
01 Jul ? 00:56:37 10° NW 00:57:56 11° WNW 00:59:15 10° WNW visible
01 Jul ? 21:59:36 10° ENE 22:01:09 12° E 22:02:41 10° ESE visible
01 Jul ? 23:33:13 10° N 23:37:30 69° WNW 23:39:51 26° SSW visible
02 Jul ? 22:13:20 10° NE 22:16:07 17° E 22:17:49 14° ESE visible
02 Jul ? 23:48:08 10° N 23:52:16 48° WNW 23:54:48 21° SW visible
03 Jul ? 22:27:35 10° NE 22:31:03 23° E 22:32:46 18° SE visible
04 Jul ? 00:03:07 10° N 00:07:01 34° WNW 00:09:46 17° SW visible
04 Jul ? 22:42:04 10° NNE 22:45:57 32° E 22:47:42 24° SE visible
05 Jul ? 00:18:12 10° N 00:21:43 25° WNW 00:24:42 12° WSW visible
05 Jul ? 22:56:40 10° NNE 23:00:50 46° E 23:02:38 29° SSE visible
06 Jul ? 00:33:25 10° NNW 00:36:22 18° WNW 00:39:19 10° WSW visible
06 Jul ? 23:11:22 10° NNE 23:15:40 67° ESE 23:17:34 32° S visible
07 Jul ? 00:48:53 10° NNW 00:51:01 14° WNW 00:53:08 10° W visible
07 Jul ? 23:26:08 10° NNE 23:30:28 85° WNW 23:32:29 31° SSW visible
